• In Germany
  • List of Countries
  • For 7 days
  • Water Temperature
  • Satellite Maps
  • Weather Map
  • Weather Widgets
  • user-avatar
    Login

    Hourly Weather Oruro

    Today, 23 July, Monday

    Time Temperature Precipitation Wind Pressure Humidity
    00:00 +1°C° 0 mm 2 mps 473 mmHg 77%
    01:00 +1°C° 0 mm 2 mps 473 mmHg 76%
    02:00 -1°C° 0 mm 2 mps 472 mmHg 75%
    03:00 -1°C° 0 mm 2 mps 472 mmHg 74%
    04:00 +1°C° 0 mm 1 mps 472 mmHg 72%
    05:00 +1°C° 0 mm 1 mps 472 mmHg 70%
    06:00 +2°C° 0 mm 1 mps 473 mmHg 68%
    07:00 +1°C° 0 mm 2 mps 474 mmHg 65%
    08:00 +2°C° 0 mm 2 mps 474 mmHg 62%
    09:00 +4°C° 0 mm 2 mps 476 mmHg 57%
    10:00 +4°C° 0 mm 3 mps 477 mmHg 51%
    11:00 +6°C° 0 mm 4 mps 478 mmHg 46%
    12:00 +7°C° 0 mm 4 mps 478 mmHg 44%
    13:00 +8°C° 0 mm 5 mps 478 mmHg 43%
    14:00 +9°C° 0 mm 6 mps 478 mmHg 42%
    15:00 +8°C° 0 mm 5 mps 478 mmHg 45%
    16:00 +8°C° 0 mm 5 mps 477 mmHg 48%
    17:00 +8°C° 0 mm 5 mps 477 mmHg 51%
    18:00 +6°C° 0 mm 5 mps 476 mmHg 58%
    19:00 +5°C° 0 mm 4 mps 476 mmHg 66%
    20:00 +4°C° 0 mm 4 mps 475 mmHg 73%
    21:00 +3°C° 0 mm 3 mps 475 mmHg 76%
    22:00 +3°C° 0 mm 3 mps 475 mmHg 78%
    23:00 +2°C° 0 mm 3 mps 475 mmHg 81%

    Tomorrow, 24 July, Tuesday

    Time Temperature Precipitation Wind Pressure Humidity
    00:00 +2°C° 0 mm 3 mps 475 mmHg 82%
    01:00 +1°C° 0 mm 3 mps 474 mmHg 84%
    02:00 +2°C° 0 mm 2 mps 474 mmHg 85%
    03:00 +2°C° 0 mm 2 mps 474 mmHg 86%
    04:00 +2°C° 0 mm 2 mps 473 mmHg 87%
    05:00 +1°C° 0 mm 2 mps 473 mmHg 88%
    06:00 +1°C° 0 mm 3 mps 474 mmHg 85%
    07:00 +1°C° 0 mm 3 mps 474 mmHg 83%
    08:00 +2°C° 0 mm 3 mps 475 mmHg 80%
    09:00 +4°C° 0 mm 4 mps 476 mmHg 70%
    10:00 +5°C° 0 mm 5 mps 478 mmHg 61%
    11:00 +7°C° 0 mm 6 mps 479 mmHg 51%
    12:00 +8°C° 0 mm 6 mps 479 mmHg 49%
    13:00 +9°C° 0 mm 6 mps 479 mmHg 47%
    14:00 +9°C° 0 mm 6 mps 479 mmHg 44%
    15:00 +9°C° 0 mm 6 mps 478 mmHg 45%
    16:00 +9°C° 0 mm 5 mps 478 mmHg 46%
    17:00 +9°C° 0 mm 5 mps 477 mmHg 46%
    18:00 +7°C° 0 mm 4 mps 477 mmHg 52%
    19:00 +7°C° 0 mm 3 mps 476 mmHg 58%
    20:00 +6°C° 0 mm 2 mps 476 mmHg 64%
    21:00 +5°C° 0 mm 2 mps 476 mmHg 67%
    22:00 +5°C° 0 mm 2 mps 476 mmHg 70%
    23:00 +5°C° 0 mm 1 mps 475 mmHg 73%

    Day after tomorrow, 25 July, Wednesday

    Time Temperature Precipitation Wind Pressure Humidity
    00:00 +4°C° 0 mm 2 mps 475 mmHg 73%
    01:00 +3°C° 0 mm 2 mps 475 mmHg 73%
    02:00 +3°C° 0 mm 2 mps 474 mmHg 73%
    03:00 +3°C° 0 mm 2 mps 474 mmHg 73%
    04:00 +3°C° 0 mm 1 mps 474 mmHg 73%
    05:00 +3°C° 0 mm 1 mps 473 mmHg 74%
    06:00 +4°C° 0 mm 1 mps 474 mmHg 71%
    07:00 +4°C° 0 mm 1 mps 475 mmHg 68%
    08:00 +5°C° 0 mm 1 mps 476 mmHg 65%
    09:00 +6°C° 0 mm 1 mps 477 mmHg 58%
    10:00 +8°C° 0 mm 1 mps 478 mmHg 51%
    11:00 +9°C° 0 mm 2 mps 479 mmHg 44%
    12:00 +9°C° 0 mm 2 mps 479 mmHg 41%
    13:00 +10°C° 0 mm 3 mps 479 mmHg 38%
    14:00 +11°C° 0 mm 3 mps 479 mmHg 36%
    15:00 +11°C° 0 mm 3 mps 478 mmHg 36%
    16:00 +11°C° 0 mm 4 mps 478 mmHg 37%
    17:00 +11°C° 0 mm 4 mps 478 mmHg 37%
    18:00 +8°C° 0 mm 4 mps 477 mmHg 45%
    19:00 +7°C° 0 mm 4 mps 477 mmHg 53%
    20:00 +6°C° 0 mm 4 mps 476 mmHg 61%
    21:00 +5°C° 0.1 mm 3 mps 476 mmHg 64%
    22:00 +5°C° 0.1 mm 2 mps 476 mmHg 66%
    23:00 +6°C° 0.1 mm 1 mps 476 mmHg 69%

    26 July, Thursday

    Time Temperature Precipitation Wind Pressure Humidity
    00:00 +5°C° 0 mm 1 mps 476 mmHg 68%
    01:00 +5°C° 0 mm 1 mps 475 mmHg 67%
    02:00 +4°C° 0 mm 2 mps 475 mmHg 66%
    03:00 +3°C° 0 mm 2 mps 475 mmHg 64%
    04:00 +3°C° 0 mm 2 mps 474 mmHg 63%
    05:00 +3°C° 0 mm 2 mps 474 mmHg 62%
    06:00 +3°C° 0 mm 2 mps 475 mmHg 59%
    07:00 +3°C° 0 mm 2 mps 475 mmHg 57%
    08:00 +4°C° 0 mm 2 mps 476 mmHg 55%
    09:00 +4°C° 0 mm 3 mps 477 mmHg 51%
    10:00 +7°C° 0 mm 3 mps 478 mmHg 46%
    11:00 +8°C° 0 mm 4 mps 479 mmHg 42%
    12:00 +10°C° 0 mm 4 mps 479 mmHg 39%
    13:00 +10°C° 0 mm 5 mps 479 mmHg 36%
    14:00 +12°C° 0 mm 5 mps 479 mmHg 33%
    15:00 +10°C° 0 mm 5 mps 478 mmHg 35%
    16:00 +10°C° 0 mm 6 mps 478 mmHg 36%
    17:00 +9°C° 0 mm 6 mps 477 mmHg 38%
    18:00 +8°C° 0 mm 5 mps 477 mmHg 45%
    19:00 +7°C° 0 mm 5 mps 476 mmHg 53%
    20:00 +5°C° 0 mm 4 mps 476 mmHg 60%
    21:00 +5°C° 0 mm 4 mps 475 mmHg 61%
    22:00 +4°C° 0 mm 3 mps 475 mmHg 61%
    23:00 +4°C° 0 mm 3 mps 475 mmHg 62%

    27 July, Friday

    Time Temperature Precipitation Wind Pressure Humidity
    00:00 +3°C° 0 mm 3 mps 475 mmHg 61%
    01:00 +3°C° 0 mm 3 mps 474 mmHg 59%
    02:00 +3°C° 0 mm 3 mps 474 mmHg 58%
    03:00 +3°C° 0 mm 2 mps 474 mmHg 58%
    04:00 +3°C° 0 mm 2 mps 473 mmHg 59%
    05:00 +2°C° 0 mm 2 mps 473 mmHg 60%
    06:00 +3°C° 0 mm 2 mps 474 mmHg 58%
    07:00 +3°C° 0 mm 2 mps 475 mmHg 56%
    08:00 +4°C° 0 mm 2 mps 475 mmHg 53%
    09:00 +5°C° 0 mm 3 mps 476 mmHg 48%
    10:00 +7°C° 0 mm 4 mps 477 mmHg 43%
    11:00 +9°C° 0 mm 5 mps 479 mmHg 37%
    12:00 +10°C° 0 mm 6 mps 479 mmHg 35%
    13:00 +11°C° 0 mm 7 mps 479 mmHg 32%
    14:00 +12°C° 0 mm 7 mps 479 mmHg 29%
    15:00 +12°C° 0 mm 7 mps 478 mmHg 30%
    16:00 +11°C° 0 mm 8 mps 478 mmHg 31%
    17:00 +11°C° 0 mm 8 mps 477 mmHg 32%
    18:00 +9°C° 0 mm 7 mps 477 mmHg 38%
    19:00 +7°C° 0 mm 6 mps 476 mmHg 44%
    20:00 +6°C° 0 mm 5 mps 476 mmHg 50%
    21:00 +5°C° 0 mm 4 mps 475 mmHg 48%
    22:00 +5°C° 0 mm 4 mps 475 mmHg 46%
    23:00 +4°C° 0 mm 3 mps 475 mmHg 44%

    28 July, Saturday

    Time Temperature Precipitation Wind Pressure Humidity
    00:00 +4°C° 0 mm 3 mps 475 mmHg 44%
    01:00 +3°C° 0 mm 3 mps 474 mmHg 43%
    02:00 +3°C° 0 mm 2 mps 473 mmHg 43%
    03:00 +3°C° 0 mm 2 mps 473 mmHg 43%
    04:00 +2°C° 0 mm 2 mps 472 mmHg 44%
    05:00 +2°C° 0 mm 2 mps 472 mmHg 44%
    06:00 +1°C° 0 mm 3 mps 473 mmHg 43%
    07:00 +2°C° 0 mm 3 mps 474 mmHg 42%
    08:00 +2°C° 0 mm 3 mps 474 mmHg 41%
    09:00 +5°C° 0 mm 4 mps 476 mmHg 33%
    10:00 +7°C° 0 mm 6 mps 477 mmHg 25%
    11:00 +9°C° 0 mm 7 mps 478 mmHg 17%
    12:00 +10°C° 0 mm 7 mps 478 mmHg 15%
    13:00 +11°C° 0 mm 8 mps 479 mmHg 13%
    14:00 +13°C° 0 mm 8 mps 479 mmHg 11%
    15:00 +12°C° 0 mm 7 mps 478 mmHg 11%
    16:00 +12°C° 0 mm 7 mps 478 mmHg 10%
    17:00 +13°C° 0 mm 6 mps 478 mmHg 10%
    18:00 +10°C° 0 mm 5 mps 477 mmHg 17%
    19:00 +8°C° 0 mm 3 mps 476 mmHg 24%
    20:00 +6°C° 0 mm 2 mps 475 mmHg 31%
    21:00 +5°C° 0 mm 2 mps 474 mmHg 33%
    22:00 +5°C° 0 mm 1 mps 474 mmHg 36%
    23:00 +4°C° 0 mm 1 mps 474 mmHg 38%
    Show more